Regional Weather Roundup
Issued by NWS

Home | Current Version | Previous Version | Graphics & Text | Print | Product List | Glossary Off
Versions: 1 2 3 4 5 6 7 8 9 10 11 12 13 14 15 16 17 18 19 20 21 22 23 24 25 26 27 28 29 30 31 32 33 34 35 36 37 38 39 40 41 42 43 44 45 46 47 48 49 50

000
ASUS43 KMKX 272321
RWRWI

WISCONSIN REGIONAL WEATHER ROUNDUP
NATIONAL WEATHER SERVICE MILWAUKEE/SULLIVAN WI
600 PM CDT THU JUL 27 2017

NOTE: "FAIR" INDICATES FEW OR NO CLOUDS BELOW 12,000 FEET WITH NO
SIGNIFICANT WEATHER AND/OR OBSTRUCTIONS TO VISIBILITY.

WIZ001-002-006>008-014>016-023>028-280000-
NORTHWEST WISCONSIN

CITY           SKY/WX    TMP DP  RH WIND       PRES   REMARKS
SUPERIOR ARPT  NOT AVBL
ASHLAND        MOSUNNY   75  61  61 NE10      30.07S
HAYWARD        SUNNY     79  56  45 N8        30.05F HX  80
SIREN          SUNNY     82  55  40 NE6       30.04F HX  81
CUMBERLAND     PTSUNNY   77  54  44 N8        30.05S
RICE LAKE      MOSUNNY   81  56  41 N7        30.05F HX  81
CHETEK         SUNNY     82  58  44 N3        30.04S HX  81
LADYSMITH      MOSUNNY   79  59  50 N3        30.05F HX  80
EAU CLAIRE     MOSUNNY   82  60  47 N8        30.01S HX  82
MENOMONIE      PTSUNNY   79  60  52 N5        30.02F HX  80
NEW RICHMOND   MOSUNNY   81  55  41 NE9       30.04S HX  81
OSCEOLA        SUNNY     82  57  42 N7        30.05F HX  82
$$

WIZ003>005-009-010-017-018-280000-
NORTH CENTRAL WISCONSIN

CITY           SKY/WX    TMP DP  RH WIND       PRES   REMARKS
MANITOWISH WTR SUNNY     76  59  54 N7        30.06F
ARBOR VITAE    MOSUNNY   77  58  52 N8        30.05F
WOODRUFF       MOSUNNY   77  58  52 N8        30.05F
RHINELANDER    CLOUDY    76  58  53 NE6       30.06F
EAGLE RIVER    CLOUDY    73  56  54 NE7       30.06S
LAND O LAKES   CLOUDY    76  53  45 NE9       30.09S
PHILLIPS       MOSUNNY   76  60  56 NE6       30.04F
TOMAHAWK         N/A     74  60  61 CALM      30.05S
MEDFORD        PTSUNNY   76  57  50 N3        30.03S
MERRILL        SUNNY     75  61  60 NE8       30.04S
$$

WIZ029-030-035-036-043>047-280000-
CENTRAL WISCONSIN

CITY           SKY/WX    TMP DP  RH WIND       PRES   REMARKS
WAUSAU         CLOUDY    79  58  48 CALM      30.01F HX  80
MOSINEE        NOT AVBL
MARSHFIELD     PTSUNNY   80  58  46 NE8       30.01F HX  80
STEVENS POINT  PTSUNNY   77  58  52 E5        30.02F
WAUPACA        SUNNY     82  56  41 E3        30.01S HX  81
WAUTOMA        MOSUNNY   79  58  48 E8        30.01S HX  80
WISC RAPIDS    MOSUNNY   82  60  47 E6        30.02F HX  82
CAMP DOUGLAS   MOSUNNY   78  66  68 E5        29.99F
$$

WIZ011>013-019>022-031-037>040-048>050-280000-
NORTHEAST WISCONSIN

CITY           SKY/WX    TMP DP  RH WIND       PRES   REMARKS
ANTIGO         CLOUDY    74  62  66 E3        30.05F
SHAWANO        CLOUDY    80  59  48 E6        30.00S HX  80
OCONTO         CLOUDY    76  58  53 E5        30.01S
STURGEON BAY     N/A     77  60  55 NE9       30.01S
GREEN BAY      SUNNY     77  62  59 NE13      30.01S
MANITOWOC      SUNNY     75  58  55 NE7       30.00F
APPLETON       PTSUNNY   79  52  38 NE9       30.00F
CLINTONVILLE   MOSUNNY  N/A N/A N/A CALM      30.01S
OSHKOSH        SUNNY     78  58  49 E5        30.00F
$$

WIZ032>034-041-042-053>061-280000-
SOUTHWEST WISCONSIN

CITY           SKY/WX    TMP DP  RH WIND       PRES   REMARKS
LA CROSSE      SUNNY     86  63  45 NE6       29.98F HX  87
SPARTA         PTSUNNY   82  62  50 NE5       29.99F HX  83
VIROQUA        MOSUNNY   77  66  69 CALM      30.01F
BOSCOBEL       SUNNY     85  61  44 N5        29.98F HX  85
PRAIRIE DU CHI MOSUNNY   82  58  45 NE7       29.97F HX  82
PLATTEVILLE    SUNNY     81  63  54 NE9       29.99F HX  82
$$

WIZ056-057-062-063-064-067-068-280000-
SOUTH CENTRAL WISCONSIN

CITY           SKY/WX    TMP DP  RH WIND       PRES   REMARKS
REEDSBURG      MOSUNNY   80  63  57 E8        29.99S HX  81
BARABOO/DELLS  SUNNY     80  58  47 E9        30.00S HX  80
LONE ROCK      MOSUNNY   83  64  52 N7        29.97F HX  84
MINERAL POINT  SUNNY     81  61  50 NE8       30.00F HX  81
MADISON        PTSUNNY   80  63  55 NE12      29.99S HX  81
MIDDLETON      PTSUNNY   79  62  55 NE10      30.00S HX  81
WATERTOWN      SUNNY     78  58  51 NE10      29.99S
MONROE         MOSUNNY   79  63  57 NE9       29.98S HX  80
JANESVILLE     MOSUNNY   81  61  50 NE12      29.97R HX  81
$$

WIZ051-052-058>065-066-070>072-280000-
SOUTHEAST WISCONSIN

CITY           SKY/WX    TMP DP  RH WIND       PRES   REMARKS
MILWAUKEE      MOSUNNY   75  58  55 N20G25    29.98S
WAUKESHA       SUNNY     75  50  41 N13G18    30.00S
MILWAUKEE/TIMM SUNNY     79  48  34 N13       30.00S
RACINE         SUNNY     73  62  68 N16G28    29.99S
KENOSHA        SUNNY     76  55  48 N17G24    29.97F
FOND DU LAC    SUNNY     79  54  41 NE10      30.00F
SHEBOYGAN      SUNNY     74  60  61 NE15      30.00F
WEST BEND      SUNNY     73  50  43 NE10G18   30.00F
JUNEAU         SUNNY     78  58  51 NE9       30.01S
$$

LSZ147-162-280000-
LAKE SUPERIOR

STATION/POSITION TIME  TEMP    WIND        PRES    WAVE
                       AIR SEA DIR/SP/G            HT/PER
                 (UTC) (F)     (DEG/KT/KT) (MB)    (FT/S)
W MID LAKE BUOY  2250   57 55   50/  4/  4 1018.1F   0
DEVILS ISLAND    2300   63     100/  7/  8 1018.1F
SAXON HARBOR     2230   68     340/  6/  7 1017.6F
$$

LMZ867-665-643>646-280000-
LAKE MICHIGAN

STATION/POSITION TIME  TEMP    WIND        PRES    WAVE
                       AIR SEA DIR/SP/G            HT/PER
                 (UTC) (F)     (DEG/KT/KT) (MB)    (FT/S)
CHAMBERS ISLAND  2240   73      30/ 15/ 16 1015.2F
S GREEN BAY BUOY 2300   74 72   40/ 12/ 14 1016.0
N MID LAKE BUOY  2250   70 69  360/  6/  6 1016.6F   1
NORTHPORT PIER   2240   73      10/ 11/ 14 1015.9F
KEWAUNEE LAKESHO 2254   72      40/  2/  3 1015.5F
SHEBOYGAN LAKESH 2300   70      20/ 14/ 15 1015.2F
PORT WASHINGTON  2240   78      10/  8/ 12 1016.3S
ATWATER BUOY     2209   71 69   20/ 21/ 25 1015.1F
MILWAUKEE LAKESH 2300   72      10/ 16/ 20   N/A
S MID LAKE BUOY  2250   70 71   10/ 19/ 23 1013.1F   4/ 5
KENOSHA   LAKESH 2300   72      10/ 21/ 25 1013.9
$$

TC  - TEMPERATURE IN CELSIUS
VSB - VISIBILITY IN STATUTE MILES
WCI - WIND CHILL INDEX
HX  - HEAT INDEX





USA.gov is the U.S. government's official web portal to all federal, state and local government web resources and services.